Flag for Russia Weather past 2 weeks in Samara, Russia

Now
9 °F

Ice fog.


Feels Like: 2 °F
Forecast: 3 / 23 °F
Wind: 3 mph from East

Location: Samara

Current Time: Mar 6, 2015 at 12:07:37 PM

Latest Report: Mar 6, 2015 at 11:30 AM


Visibility: 3 mi

Pressure: 30.33 "Hg

Humidity: 85%

Dew point: 5 °F

Location of SamaraLocation

Historic Weather in Samara — Graph

°F

Samara temperature yesterday

Maximum temperature yesterday: 18 °F (at 3:00 PM)
Minimum temperature yesterday: 0 °F (at 7:00 AM)
Average temperature yesterday: 9 °F

Past Weeks' High & Low Weather Summary

 TemperatureHumidityPressure
High37 °F (Feb 23, 1:30 PM)100% (Feb 25, 11:30 PM)30.72 "Hg (Feb 25, 11:30 PM)
Low-4 °F (Feb 19, 11:00 AM)49% (Feb 20, 3:30 PM)29.95 "Hg (Feb 21, 3:30 AM)
Average18 °F79%30.31 "Hg
* Reported Feb 19 11:00 AM — Mar 6 11:00 AM, Samara, Weather by CustomWeather, © 2015

Note: Actual official high and low records may vary slightly from our data, if they occured in-between our weather recording intervals... More about our weather records

Advertising

Samara weather history for previous 24 hours

 ConditionsComfort  
Time TempWeatherWind HumidityBarometerVisibility
11:00 AM
Fri, Mar 6
9 °FIce fog.3 mph78%30.33 "Hg2 mi
10:30 AM7 °FIce fog.3 mph85%30.33 "Hg2 mi
10:00 AM7 °FIce fog.1 mph85%30.33 "Hg2 mi
9:30 AM7 °FIce fog.1 mph85%30.33 "Hg2 mi
9:00 AM5 °FIce fog.No wind85%30.33 "Hg2 mi
8:30 AM0 °FIce fog.No wind84%30.33 "Hg2 mi
8:00 AM-2 °FIce fog.1 mph84%30.30 "Hg2 mi
7:30 AM1 °FIce fog.1 mph85%30.30 "Hg0 mi
7:00 AM3 °FIce fog.No wind85%30.30 "Hg1 mi
6:30 AM3 °FIce fog.No wind85%30.30 "Hg1 mi
6:00 AM3 °FIce fog.1 mph85%30.27 "Hg1 mi
5:30 AM3 °FIce fog.1 mph85%30.27 "Hg1 mi
5:00 AM3 °FIce fog.3 mph85%30.27 "Hg1 mi
4:30 AM3 °FIce fog.3 mph85%30.27 "Hg0 mi
4:00 AM3 °FIce fog.6 mph92%30.27 "Hg1 mi
3:30 AM3 °FIce fog.6 mph92%30.27 "Hg1 mi
3:00 AM3 °FIce fog.3 mph85%30.27 "Hg1 mi
2:30 AM3 °FIce fog.3 mph85%30.27 "Hg1 mi
2:00 AM7 °FIce fog.3 mph92%30.27 "Hg2 mi
1:30 AM9 °FIce fog.No wind85%30.27 "Hg2 mi
12:30 AM9 °FIce fog.No wind85%30.27 "Hg2 mi
12:00 AM9 °FIce fog.1 mph85%30.27 "Hg2 mi
11:30 PM
Thu, Mar 5
10 °FIce fog.3 mph85%30.27 "Hg3 mi
11:00 PM10 °FIce fog.3 mph85%30.27 "Hg3 mi
10:30 PM7 °FIce fog.3 mph92%30.24 "Hg3 mi
10:00 PM7 °FIce fog.1 mph92%30.24 "Hg3 mi
9:30 PM9 °FClear.3 mph85%30.24 "HgN/A
9:00 PM7 °FClear.3 mph92%30.24 "Hg10 mi
8:30 PM9 °FClear.6 mph85%30.24 "Hg10 mi
8:00 PM9 °FClear.3 mph85%30.24 "Hg10 mi
7:30 PM9 °FClear.3 mph85%30.24 "Hg10 mi
7:00 PM9 °FSunny.6 mph78%30.24 "Hg10 mi
6:30 PM10 °FSunny.6 mph79%30.21 "Hg10 mi
6:00 PM12 °FSunny.6 mph73%30.21 "Hg10 mi
5:30 PM16 °FSunny.8 mph73%30.21 "Hg10 mi
5:00 PM16 °FSunny.8 mph73%30.21 "Hg10 mi
4:30 PM18 °FSunny.6 mph68%30.21 "Hg10 mi
4:00 PM18 °FSunny.6 mph68%30.18 "Hg10 mi
3:30 PM18 °FSunny.8 mph68%30.18 "Hg10 mi
3:00 PM18 °FSunny.8 mph68%30.18 "Hg10 mi
2:30 PM16 °FSunny.8 mph73%30.18 "Hg10 mi
2:00 PM16 °FSunny.8 mph73%30.18 "Hg10 mi
1:30 PM14 °FSunny.6 mph73%30.18 "Hg10 mi
1:00 PM14 °FIce fog.6 mph73%30.18 "Hg3 mi
12:30 PM12 °FIce fog.3 mph79%30.18 "Hg2 mi
12:00 PM10 °FIce fog.6 mph85%30.18 "Hg2 mi
Weather by CustomWeather, © 2015

See weather overviewHow to use our weather pages